User: anonymous   Login
Location: Buckeye Ditch
(40.9104°N, 122.9517°W)
Time: 15:26:39
(UTC+00:00)
Language:

Chandra Rocket (1) - Orbit

View from above orbital plane
View from above orbital plane
View from above satellite
View from above satellite

Ground track
Ground track

The orbit data is extracted from the following two-line orbital elements,

1 25868U 99040C   24173.97580520  .00005608  00000-0  57265-3 0  9991
2 25868  28.4637  84.3527 4425583 219.2347  98.5277  6.63276192564925
Epoch (UTC): 21 June 2024 23:25:09
Eccentricity: 0.4425583
inclination: 28.4637°
perigee height: 292 km
apogee height: 10883 km
right ascension of ascending node: 84.3527°
argument of perigee: 219.2347°
revolutions per day: 6.63276192
mean anomaly at epoch: 98.5277°
orbit number at epoch: 56492

The dashed part of the orbit path shows where the satellite is in the earth's shadow,  

DLR